• In Moldova, Republic
  • List of Countries
  • For 7 days
  • Water Temperature
  • Satellite Maps
  • Weather Map
  • Weather Widgets
  • user-avatar
    Login

    Hourly Weather Annaba

    Today, 27 February, Monday

    Time Temperature Precipitation Wind Pressure Humidity
    00:00 +10°C° 0 mm 3 mps 763 mmHg 93%
    01:00 +10°C° 0 mm 3 mps 764 mmHg 93%
    02:00 +9°C° 0 mm 3 mps 763 mmHg 93%
    03:00 +9°C° 0 mm 3 mps 763 mmHg 93%
    04:00 +8°C° 0 mm 3 mps 763 mmHg 93%
    05:00 +8°C° 0 mm 3 mps 763 mmHg 92%
    06:00 +7°C° 0 mm 2 mps 763 mmHg 92%
    07:00 +7°C° 0 mm 2 mps 763 mmHg 92%
    08:00 +9°C° 0 mm 2 mps 763 mmHg 85%
    09:00 +13°C° 0 mm 2 mps 763 mmHg 78%
    10:00 +15°C° 0 mm 1 mps 763 mmHg 71%
    11:00 +16°C° 0 mm 1 mps 762 mmHg 66%
    12:00 +19°C° 0 mm 1 mps 762 mmHg 61%
    13:00 +20°C° 0 mm 1 mps 762 mmHg 56%
    14:00 +19°C° 0 mm 2 mps 761 mmHg 58%
    15:00 +19°C° 0 mm 2 mps 761 mmHg 61%
    16:00 +19°C° 0 mm 2 mps 761 mmHg 63%
    17:00 +16°C° 0 mm 2 mps 761 mmHg 73%
    18:00 +14°C° 0 mm 2 mps 761 mmHg 82%
    19:00 +10°C° 0 mm 2 mps 761 mmHg 92%
    20:00 +10°C° 0 mm 2 mps 761 mmHg 92%
    21:00 +9°C° 0 mm 2 mps 761 mmHg 92%
    22:00 +9°C° 0 mm 2 mps 761 mmHg 92%
    23:00 +9°C° 0 mm 2 mps 761 mmHg 91%

    Tomorrow, 28 February, Tuesday

    Time Temperature Precipitation Wind Pressure Humidity
    00:00 +9°C° 0 mm 2 mps 761 mmHg 89%
    01:00 +9°C° 0 mm 2 mps 761 mmHg 88%
    02:00 +10°C° 0 mm 2 mps 760 mmHg 87%
    03:00 +10°C° 0 mm 2 mps 760 mmHg 85%
    04:00 +10°C° 0 mm 2 mps 760 mmHg 83%
    05:00 +10°C° 0 mm 2 mps 760 mmHg 80%
    06:00 +10°C° 0 mm 2 mps 760 mmHg 77%
    07:00 +10°C° 0 mm 2 mps 760 mmHg 73%
    08:00 +13°C° 0 mm 2 mps 760 mmHg 68%
    09:00 +16°C° 0 mm 2 mps 760 mmHg 62%
    10:00 +18°C° 0 mm 2 mps 760 mmHg 56%
    11:00 +19°C° 0 mm 2 mps 760 mmHg 54%
    12:00 +20°C° 0 mm 3 mps 760 mmHg 51%
    13:00 +21°C° 0 mm 3 mps 759 mmHg 48%
    14:00 +21°C° 0 mm 3 mps 759 mmHg 54%
    15:00 +20°C° 0 mm 4 mps 759 mmHg 59%
    16:00 +20°C° 0 mm 4 mps 758 mmHg 65%
    17:00 +17°C° 0 mm 4 mps 759 mmHg 74%
    18:00 +14°C° 0 mm 3 mps 759 mmHg 84%
    19:00 +11°C° 0 mm 3 mps 759 mmHg 93%
    20:00 +11°C° 0 mm 3 mps 760 mmHg 94%
    21:00 +10°C° 0 mm 3 mps 760 mmHg 95%
    22:00 +9°C° 0 mm 3 mps 761 mmHg 95%
    23:00 +9°C° 0 mm 3 mps 761 mmHg 95%

    Day after tomorrow, 1 March, Wednesday

    Time Temperature Precipitation Wind Pressure Humidity
    00:00 +8°C° 0 mm 4 mps 761 mmHg 95%
    01:00 +10°C° 0 mm 4 mps 761 mmHg 94%
    02:00 +10°C° 0 mm 4 mps 761 mmHg 94%
    03:00 +9°C° 0 mm 5 mps 761 mmHg 93%
    04:00 +10°C° 0 mm 5 mps 760 mmHg 92%
    05:00 +9°C° 0 mm 5 mps 761 mmHg 92%
    06:00 +9°C° 0 mm 5 mps 761 mmHg 91%
    07:00 +9°C° 0 mm 5 mps 762 mmHg 91%
    08:00 +12°C° 0 mm 5 mps 762 mmHg 85%
    09:00 +14°C° 0 mm 5 mps 763 mmHg 79%
    10:00 +17°C° 0 mm 4 mps 764 mmHg 74%
    11:00 +17°C° 0.1 mm 4 mps 763 mmHg 73%
    12:00 +17°C° 0.1 mm 3 mps 763 mmHg 73%
    13:00 +17°C° 0.1 mm 3 mps 763 mmHg 72%
    14:00 +17°C° 0 mm 3 mps 763 mmHg 72%
    15:00 +17°C° 0 mm 3 mps 763 mmHg 72%
    16:00 +18°C° 0 mm 2 mps 763 mmHg 71%
    17:00 +15°C° 0 mm 2 mps 763 mmHg 78%
    18:00 +13°C° 0 mm 1 mps 764 mmHg 84%
    19:00 +11°C° 0 mm 1 mps 764 mmHg 91%
    20:00 +10°C° 0 mm 1 mps 765 mmHg 91%
    21:00 +9°C° 0 mm 1 mps 765 mmHg 92%
    22:00 +9°C° 0 mm 1 mps 765 mmHg 93%
    23:00 +9°C° 0 mm 1 mps 765 mmHg 92%

    2 March, Thursday

    Time Temperature Precipitation Wind Pressure Humidity
    00:00 +9°C° 0 mm 1 mps 765 mmHg 91%
    01:00 +9°C° 0 mm 2 mps 765 mmHg 91%
    02:00 +9°C° 0 mm 1 mps 765 mmHg 91%
    03:00 +9°C° 0 mm 1 mps 764 mmHg 90%
    04:00 +9°C° 0 mm 1 mps 764 mmHg 90%
    05:00 +9°C° 0 mm 1 mps 764 mmHg 90%
    06:00 +9°C° 0 mm 1 mps 764 mmHg 89%
    07:00 +8°C° 0 mm 2 mps 764 mmHg 89%
    08:00 +12°C° 0 mm 2 mps 764 mmHg 81%
    09:00 +15°C° 0 mm 2 mps 764 mmHg 74%
    10:00 +18°C° 0 mm 2 mps 764 mmHg 66%
    11:00 +19°C° 0 mm 2 mps 763 mmHg 62%
    12:00 +20°C° 0 mm 2 mps 763 mmHg 57%
    13:00 +23°C° 0 mm 2 mps 762 mmHg 53%
    14:00 +22°C° 0 mm 3 mps 762 mmHg 56%
    15:00 +21°C° 0 mm 3 mps 762 mmHg 59%
    16:00 +21°C° 0 mm 4 mps 761 mmHg 62%
    17:00 +18°C° 0 mm 4 mps 761 mmHg 72%
    18:00 +16°C° 0 mm 3 mps 761 mmHg 81%
    19:00 +12°C° 0 mm 3 mps 761 mmHg 90%
    20:00 +12°C° 0 mm 3 mps 761 mmHg 90%
    21:00 +12°C° 0 mm 3 mps 762 mmHg 90%
    22:00 +12°C° 0 mm 2 mps 762 mmHg 90%
    23:00 +13°C° 0 mm 2 mps 761 mmHg 88%

    3 March, Friday

    Time Temperature Precipitation Wind Pressure Humidity
    00:00 +13°C° 0 mm 2 mps 761 mmHg 87%
    01:00 +13°C° 0 mm 2 mps 761 mmHg 85%
    02:00 +13°C° 0 mm 2 mps 760 mmHg 81%
    03:00 +13°C° 0 mm 2 mps 760 mmHg 77%
    04:00 +13°C° 0 mm 2 mps 759 mmHg 74%
    05:00 +12°C° 0 mm 3 mps 759 mmHg 72%
    06:00 +12°C° 0 mm 3 mps 759 mmHg 70%
    07:00 +12°C° 0 mm 3 mps 759 mmHg 68%
    08:00 +16°C° 0 mm 3 mps 759 mmHg 64%
    09:00 +18°C° 0 mm 3 mps 759 mmHg 60%
    10:00 +20°C° 0 mm 3 mps 759 mmHg 55%
    11:00 +23°C° 0 mm 2 mps 758 mmHg 50%
    12:00 +25°C° 0 mm 2 mps 758 mmHg 45%
    13:00 +26°C° 0 mm 2 mps 757 mmHg 40%
    14:00 +26°C° 0 mm 2 mps 757 mmHg 43%
    15:00 +25°C° 0 mm 3 mps 757 mmHg 46%
    16:00 +25°C° 0 mm 3 mps 756 mmHg 50%
    17:00 +21°C° 0 mm 2 mps 757 mmHg 61%
    18:00 +17°C° 0 mm 2 mps 757 mmHg 73%
    19:00 +14°C° 0 mm 1 mps 758 mmHg 84%
    20:00 +13°C° 0 mm 1 mps 758 mmHg 84%
    21:00 +13°C° 0 mm 2 mps 759 mmHg 83%
    22:00 +12°C° 0 mm 2 mps 759 mmHg 83%
    23:00 +12°C° 0 mm 2 mps 759 mmHg 82%

    4 March, Saturday

    Time Temperature Precipitation Wind Pressure Humidity
    00:00 +12°C° 0 mm 2 mps 759 mmHg 82%
    01:00 +12°C° 0 mm 2 mps 759 mmHg 81%
    02:00 +11°C° 0 mm 1 mps 759 mmHg 82%
    03:00 +11°C° 0 mm 1 mps 758 mmHg 82%
    04:00 +11°C° 0 mm 1 mps 758 mmHg 82%
    05:00 +12°C° 0 mm 1 mps 758 mmHg 78%
    06:00 +12°C° 0 mm 2 mps 758 mmHg 74%
    07:00 +12°C° 0 mm 3 mps 757 mmHg 71%
    08:00 +14°C° 0 mm 3 mps 757 mmHg 65%
    09:00 +18°C° 0 mm 3 mps 757 mmHg 59%
    10:00 +20°C° 0 mm 4 mps 757 mmHg 54%
    11:00 +22°C° 0 mm 4 mps 756 mmHg 48%
    12:00 +25°C° 0 mm 4 mps 755 mmHg 43%
    13:00 +27°C° 0 mm 5 mps 754 mmHg 38%
    14:00 +27°C° 0 mm 5 mps 754 mmHg 40%
    15:00 +27°C° 0 mm 4 mps 753 mmHg 42%
    16:00 +28°C° 0 mm 4 mps 752 mmHg 44%
    17:00 +25°C° 0 mm 5 mps 753 mmHg 43%
    18:00 +22°C° 0 mm 5 mps 753 mmHg 42%
    19:00 +20°C° 0 mm 6 mps 753 mmHg 41%
    20:00 +17°C° 0.1 mm 7 mps 753 mmHg 51%
    21:00 +16°C° 0.1 mm 8 mps 754 mmHg 61%
    22:00 +13°C° 0.1 mm 9 mps 755 mmHg 71%
    23:00 +12°C° 0.2 mm 8 mps 756 mmHg 76%
    Show more